STARLINK-1465, 45731

Orbit data source: Space-Track

STARLINK-1465, 45731 is a payload satellite owned by SpaceX/Seattle (US) in LEO that was launched on Sat, 13 Jun 2020 UTC via an FALCON 9 launch vehicle from the Air Force Eastern Test Range (AFETR). Payload-class satellites include a variety of spacecraft equipped with specific instruments for various scientific and technological missions. These include communications satellites like Starlink; space stations such as the ISS; scientific satellites like the Hubble; Earth observation satellites from companies like Planet Labs, Umbra, and HawkEye 360; GPS; miniature CubeSats for education and research; and military/defense satellites.

Not visible in the next 10 days
Identifier
45731, 2020-038B
Orbit
LEO
Country
Flag of USUS
Related business
Manufacturer
SpaceX/Seattle
Mission
Partially operational Commercial Communications
Bus & Motor
STARLINK, Unknown motor
Mass
260 kg wet, ~248 kg dry
Launch date (UTC)
2020-06-13 (6 years ago)
Launch vehicle
FALCON 9
Launch site
Air Force Eastern Test Range (AFETR)
Object type
Payload
Rocket body
Debris
Shape & HBR
Box + 1 Pan, 10.1 m
Radar Cross Section
13.562 m², Large (>1 m²)

Expand to show TLE details & history
Last TLE update: 12 hours ago

TLE from 12 hours ago
0 STARLINK-1465
1 45731U 20038B   26255.73268900  .00106790  00000-0  50764-3 0  9996
2 45731  53.0411  23.3542 0001489 326.8661  33.2267 15.82122354345692
Epoch: 2026-09-12T17:35Z
TLE epoch observation values (Epoch: 2026-09-12T17:35:04.329Z)
Latitude
-0.00005°
Longitude
127.84866°
Altitude
324.512 km
Speed
7.715 km/s
True Right ascension
01h 33m 24s
True Declination
0° 00' 00"
Sunlit
Object was in full shadow at epoch
Visualization orbit readout
Latitude
Unknown
Longitude
Unknown
Altitude
Unknown
Speed
Unknown
Apparent Right ascension
Unknown
Apparent Declination
Unknown
Sunlit
N/A
Visualization observer readout
Local Sidereal Time
21:59:32
Azimuth
Unknown
Elevation
Unknown
Doppler factor
Unknown
Orbital elements
Apogee altitude
325.719 km
Perigee altitude
323.723 km
Semi-major axis
6,702.858 km
Eccentricity
0.00015
Inclination
53.0411°
RAAN
23.3542°
Arg. of periapsis
326.8661°
True anomaly
33.23605°
Mean anomaly
33.2267°
Eccentric anomaly
33.23138°
Mean motion
3.95506 °/min
Orbital period
91.02 mins
BSTAR
0.00050764
Loading maneuver chart data...
Computing Atmospheric mass density...

Documentation

Showing up to 5 results
|